This is the latest recevied weather packets stored in our database for station/object SQ6IUS-13. If no packets are shown the sender has not sent any weather packets the latest 10 day(s).
| Time | Temp. | Humidity | Pressure | Rain* | Wind** | Luminosity | Snow |
|---|---|---|---|---|---|---|---|
| 1776928716 | 11.11° C | 64% | 1019.7 hPa | - | - | - | - |
| 1776927817 | 9.44° C | 64% | 1019.8 hPa | - | - | - | - |
| 1776926918 | 9.44° C | 68% | 1019.9 hPa | - | - | - | - |
| 1776926022 | 9.44° C | 72% | 1019.9 hPa | - | - | - | - |
| 1776925123 | 8.89° C | 77% | 1019.8 hPa | - | - | - | - |
| 1776924284 | 8.33° C | 88% | 1019.9 hPa | - | - | - | - |
| 1776924220 | 8.33° C | 88% | 1019.9 hPa | - | - | - | - |
| 1776923320 | 7.78° C | 100% | 1020 hPa | - | - | - | - |
| 1776922422 | 7.22° C | 100% | 1020 hPa | - | - | - | - |
| 1776921523 | 6.11° C | 100% | 1020 hPa | - | - | - | - |
| 1776920624 | 5.56° C | 100% | 1020 hPa | - | - | - | - |
| 1776919724 | 5° C | 100% | 1020 hPa | - | - | - | - |
| 1776918825 | 5° C | 100% | 1019.9 hPa | - | - | - | - |
| 1776917927 | 5° C | 100% | 1019.9 hPa | - | - | - | - |
| 1776917028 | 5° C | 100% | 1019.8 hPa | - | - | - | - |
| 1776916129 | 5° C | 100% | 1019.7 hPa | - | - | - | - |
| 1776915230 | 5° C | 100% | 1019.7 hPa | - | - | - | - |
| 1776914331 | 5° C | 100% | 1019.7 hPa | - | - | - | - |
| 1776913433 | 5° C | 100% | 1019.7 hPa | - | - | - | - |
| 1776912534 | 5° C | 100% | 1019.7 hPa | - | - | - | - |
| 1776911635 | 5° C | 100% | 1019.8 hPa | - | - | - | - |
| 1776910736 | 5° C | 100% | 1019.9 hPa | - | - | - | - |
| 1776909836 | 5° C | 100% | 1020.1 hPa | - | - | - | - |
| 1776908937 | 4.44° C | 100% | 1020 hPa | - | - | - | - |
| 1776908038 | 5° C | 100% | 1020.1 hPa | - | - | - | - |
* Rain since midnight (hover to see other rain measurements)
** Current wind speed in m/s (hover to see current wind gust speed)